Weather History for Iowa City, IA

Change the Weather History Date:

Tuesday, June 25, 2013

  Actual Average Record
Temperature  
Mean Temperature 77 °F 74 °F  
Max Temperature 87 °F 84 °F 102 °F (1988)
Min Temperature 67 °F 64 °F 44 °F (2004)
Degree Days  
Heating Degree Days 0 0  
Month to date heating degree days 21 14  
Since 1 June heating degree days 21 14  
Since 1 July heating degree days 6449 6375  
Cooling Degree Days 12 9  
Month to date cooling degree days 156 165  
Year to date cooling degree days 243 226  
Since 1 June cooling degree days 156 165  
Growing Degree Days 26 (Base 50)    
Moisture  
Dew Point 71 °F    
Average Humidity 80    
Maximum Humidity 100    
Minimum Humidity 59    
Precipitation  
Precipitation 0.01 in 0.16 in 1.96 in (2003)
Month to date precipitation 3.36 3.70  
Year to date precipitation 24.60 15.79  
Sea Level Pressure  
Sea Level Pressure 29.82 in    
Wind  
Wind Speed 5 mph (SSE)    
Max Wind Speed 22 mph    
Max Gust Speed 28 mph    
Visibility 10 miles    
Events Rain , Thunderstorm    
T = Trace of Precipitation, MM = Missing Value Source: NWS Daily Summary

Daily Weather History Graph

Daily Weather History Graph

Search for Another Location

Airport:

Trip Planner

Search our weather history database for the weather conditions in past years. The results will help you decide how hot, cold, wet, or windy it might be!

Date:

Astronomy

Jun. 25, 2013 Rise Set
Actual Time 5:33 AM CDT 8:44 PM CDT
Civil Twilight 4:59 AM CDT 9:18 PM CDT
Nautical Twilight 4:15 AM CDT 10:02 PM CDT
Astronomical Twilight 3:22 AM CDT 10:55 PM CDT
Moon 10:27 PM CDT (6/25) 8:15 AM CDT (6/25)
Length of Visible Light 16h 19m
Length of Day
15h 11m
Waning Gibbous, 92% of the Moon is Illuminated
Jun 25
Waning Gibbous
Jun 29
Last Quarter
Jul 8
New
Jul 15
First Quarter
Jul 22
Full

Hourly Weather History & Observations

Time (CDT) Temp. Heat Index Dew Point Humidity Pressure Visibility Wind Dir Wind Speed Gust Speed Precip Events Conditions
12:52 AM 66.9 °F - 64.9 °F 93% 29.87 in 10.0 mi SE 5.8 mph - N/A   Clear
1:52 AM 68.0 °F - 66.0 °F 93% 29.84 in 10.0 mi ESE 3.5 mph - N/A   Clear
2:52 AM 68.0 °F - 66.9 °F 96% 29.85 in 10.0 mi ESE 4.6 mph - N/A   Clear
3:52 AM 66.9 °F - 66.0 °F 97% 29.83 in 10.0 mi Calm Calm - N/A   Clear
4:52 AM 68.0 °F - 66.9 °F 96% 29.83 in 10.0 mi Calm Calm - N/A   Clear
5:52 AM 69.1 °F - 68.0 °F 96% 29.83 in 10.0 mi Calm Calm - N/A Thunderstorm Mostly Cloudy
6:25 AM 69.8 °F - 68.0 °F 94% 29.83 in 10.0 mi Calm Calm - N/A   Clear
6:52 AM 70.0 °F - 69.1 °F 97% 29.82 in 10.0 mi Calm Calm - 0.01 in   Clear
7:52 AM 72.0 °F - 70.0 °F 93% 29.86 in 10.0 mi Calm Calm - N/A   Clear
8:52 AM 73.9 °F - 71.1 °F 91% 29.88 in 10.0 mi ENE 4.6 mph - N/A   Clear
9:52 AM 77.0 °F - 72.0 °F 84% 29.85 in 10.0 mi East 4.6 mph - N/A   Clear
10:52 AM 80.1 °F 83.8 °F 72.0 °F 76% 29.86 in 10.0 mi SSW 9.2 mph - N/A   Clear
11:52 AM 80.1 °F 83.8 °F 72.0 °F 76% 29.86 in 10.0 mi SSW 15.0 mph - 0.00 in Rain Light Rain
12:52 PM 80.1 °F 84.2 °F 73.0 °F 79% 29.81 in 10.0 mi South 8.1 mph - 0.00 in   Scattered Clouds
1:52 PM 82.0 °F 87.4 °F 73.0 °F 74% 29.83 in 10.0 mi SSW 16.1 mph 23.0 mph N/A   Partly Cloudy
2:52 PM 81.0 °F 85.8 °F 73.0 °F 77% 29.81 in 10.0 mi South 6.9 mph - N/A   Clear
3:52 PM 86.0 °F 93.0 °F 73.0 °F 65% 29.78 in 10.0 mi SSW 9.2 mph - N/A   Clear
4:52 PM 87.1 °F 93.6 °F 72.0 °F 61% 29.77 in 10.0 mi SW 8.1 mph - N/A   Clear
5:52 PM 86.0 °F 93.8 °F 73.9 °F 67% 29.76 in 10.0 mi South 4.6 mph - N/A   Clear
6:52 PM 86.0 °F 93.8 °F 73.9 °F 67% 29.77 in 10.0 mi South 8.1 mph - N/A   Clear
7:52 PM 82.0 °F 87.4 °F 73.0 °F 74% 29.77 in 10.0 mi South 6.9 mph - N/A   Clear
8:52 PM 80.1 °F 84.2 °F 73.0 °F 79% 29.77 in 10.0 mi Calm Calm - N/A   Clear
9:52 PM 78.1 °F - 73.0 °F 84% 29.78 in 10.0 mi Calm Calm - N/A   Clear
10:52 PM 75.9 °F - 73.0 °F 91% 29.78 in 10.0 mi SSE 3.5 mph - N/A   Partly Cloudy
11:52 PM 78.1 °F - 73.0 °F 84% 29.75 in 10.0 mi SE 9.2 mph - N/A   Mostly Cloudy